Weather History for Billings, MT

Change the Weather History Date:

Tuesday, January 10, 2012

  Actual Average Record
Temperature  
Mean Temperature 38 °F 27 °F  
Max Temperature 51 °F 36 °F 59 °F (1941)
Min Temperature 24 °F 17 °F -22 °F (1949)
Degree Days  
Heating Degree Days 27 38  
Month to date heating degree days 267 387  
Since 1 July heating degree days 2706 3208  
Cooling Degree Days 0 0  
Month to date cooling degree days 0 0  
Year to date cooling degree days 0 0  
Moisture  
Dew Point 20 °F    
Average Humidity 55    
Maximum Humidity 78    
Minimum Humidity 32    
Precipitation  
Precipitation 0.00 in 0.02 in 0.16 in (2007)
Month to date precipitation 0.00 0.16  
Year to date precipitation 0.00 0.16  
Snow  
Snow 0.00 in 0.30 in 3.20 in (2007)
Month to date snowfall 0.0 2.8  
Since 1 July snowfall 9.3 22.7  
Snow Depth 0.00 in    
Sea Level Pressure  
Sea Level Pressure 29.98 in    
Wind  
Wind Speed 20 mph (WNW)    
Max Wind Speed 37 mph    
Max Gust Speed 45 mph    
Visibility 10 miles    
Events      
T = Trace of Precipitation, MM = Missing Value Source: NWS Daily Summary

Daily Weather History Graph

Daily Weather History Graph

Search for Another Location

Airport:

Trip Planner

Search our weather history database for the weather conditions in past years. The results will help you decide how hot, cold, wet, or windy it might be!

Date:

Astronomy

Jan. 10, 2012 Rise Set
Actual Time 7:54 AM MST 4:49 PM MST
Civil Twilight 7:20 AM MST 5:23 PM MST
Nautical Twilight 6:43 AM MST 6:00 PM MST
Astronomical Twilight 6:07 AM MST 6:36 PM MST
Moon 6:52 PM MST (1/10) 8:27 AM MST (1/10)
Length of Visible Light 10h 02m
Length of Day
8h 55m
Full, 98% of the Moon is Illuminated
Jan 10
Full
Jan 16
Last Quarter
Jan 23
New
Jan 30
First Quarter
Feb 7
Full

Hourly Weather History & Observations

Time (MST) Temp. Windchill Dew Point Humidity Pressure Visibility Wind Dir Wind Speed Gust Speed Precip Events Conditions
12:53 AM 43.0 °F 34.5 °F 21.0 °F 42% 30.02 in 10.0 mi WSW 19.6 mph - N/A   Scattered Clouds
1:53 AM 39.0 °F 31.4 °F 21.9 °F 50% 30.01 in 10.0 mi SW 12.7 mph - N/A   Partly Cloudy
2:53 AM 39.0 °F 30.6 °F 21.9 °F 50% 29.98 in 10.0 mi SW 15.0 mph - N/A   Mostly Cloudy
3:53 AM 41.0 °F 31.9 °F 21.9 °F 47% 29.94 in 10.0 mi WSW 19.6 mph - N/A   Mostly Cloudy
4:53 AM 42.1 °F 32.6 °F 21.9 °F 45% 29.93 in 10.0 mi WSW 23.0 mph 26.5 mph N/A   Scattered Clouds
5:53 AM 43.0 °F 34.0 °F 21.9 °F 43% 29.90 in 10.0 mi WSW 21.9 mph 28.8 mph N/A   Scattered Clouds
6:53 AM 42.8 °F 33.8 °F 21.2 °F 42% 29.85 in 10.0 mi WSW 21.9 mph 25.3 mph N/A   Scattered Clouds
7:53 AM 45.0 °F 36.9 °F 21.0 °F 39% 29.86 in 10.0 mi WSW 20.7 mph - N/A   Mostly Cloudy
8:53 AM 44.1 °F 35.7 °F 21.0 °F 40% 29.85 in 10.0 mi WSW 20.7 mph 25.3 mph N/A   Mostly Cloudy
9:53 AM 45.0 °F 37.4 °F 21.0 °F 39% 29.84 in 10.0 mi WSW 18.4 mph - N/A   Mostly Cloudy
10:53 AM 44.6 °F 36.6 °F 21.2 °F 39% 29.79 in 10.0 mi WSW 19.6 mph 26.5 mph N/A   Mostly Cloudy
11:53 AM 46.9 °F - 21.0 °F 36% 29.79 in 10.0 mi WSW 20.7 mph 28.8 mph N/A   Overcast
12:53 PM 50.0 °F - 21.9 °F 33% 29.78 in 10.0 mi West 23.0 mph 26.5 mph N/A   Mostly Cloudy
1:53 PM 48.0 °F - 27.0 °F 44% 29.81 in 10.0 mi NW 27.6 mph 33.4 mph N/A   Mostly Cloudy
2:53 PM 45.0 °F 36.2 °F 27.0 °F 49% 29.86 in 10.0 mi WNW 24.2 mph 34.5 mph N/A   Overcast
3:53 PM 45.0 °F 36.4 °F 19.9 °F 37% 29.88 in 10.0 mi NW 23.0 mph 38.0 mph N/A   Mostly Cloudy
4:53 PM 35.1 °F 23.3 °F 23.0 °F 61% 29.99 in 10.0 mi NNW 23.0 mph 28.8 mph N/A   Mostly Cloudy
5:53 PM 30.9 °F 18.7 °F 24.1 °F 76% 30.07 in 10.0 mi NNE 19.6 mph 27.6 mph N/A   Overcast
6:53 PM 30.0 °F 19.1 °F 21.9 °F 72% 30.11 in 10.0 mi North 15.0 mph - N/A   Overcast
7:11 PM 30.2 °F 18.5 °F 21.2 °F 69% 30.05 in 10.0 mi North 17.3 mph - N/A   Overcast
7:53 PM 28.9 °F 15.8 °F 17.1 °F 61% 30.16 in 10.0 mi North 20.7 mph 28.8 mph N/A   Overcast
8:53 PM 27.0 °F 12.8 °F 15.1 °F 61% 30.21 in 10.0 mi North 21.9 mph 35.7 mph N/A   Overcast
9:53 PM 27.0 °F 13.9 °F 12.9 °F 56% 30.25 in 10.0 mi North 18.4 mph 28.8 mph N/A   Overcast
10:53 PM 26.1 °F 12.7 °F 10.9 °F 53% 30.29 in 10.0 mi NNW 18.4 mph 25.3 mph N/A   Overcast
11:53 PM 24.1 °F 12.5 °F 12.0 °F 60% 30.31 in 10.0 mi NNW 12.7 mph - N/A   Mostly Cloudy